Theta_e
315 315 315 314 314 313 313 312 312 312 312 312 312 312 311 311 311 311 311 311 311 311 310 310 310 310 311 311 310 310 309 309 309 308 309 310 311 311 312 312 311 311 310 309 309 309 309 309 309 309 310 310 310 310 310 310 310 310 310 310 311 311 312 312 311 311 311 311 311 311 312 312 312 312 312 311 311 310 310 309 308 308 307 307 307 306
314 314 314 313 313 313 312 311 311 311 310 311 311 311 311 310 310 310 310 310 310 310 310 310 310 310 311 311 311 310 310 310 310 310 309 310 310 311 311 310 310 309 309 309 309 309 309 309 309 309 309 309 310 310 310 310 310 310 310 310 310 311 311 311 311 311 311 311 310 310 311 311 311 311 310 310 309 309 308 308 307 307 306 306 306 305
313 313 312 312 311 311 311 310 310 309 309 309 309 309 309 309 309 309 309 309 309 309 309 309 310 310 310 310 311 311 311 311 311 311 310 310 311 311 310 309 309 309 308 308 308 309 309 309 309 309 309 309 309 309 309 309 309 309 309 310 310 310 311 311 311 310 310 310 310 310 310 310 310 309 309 308 308 307 307 307 306 306 305 305 305 304
311 311 310 310 310 310 309 309 308 308 308 308 307 307 307 307 307 307 308 307 308 308 308 309 309 309 309 310 310 311 311 311 311 311 311 311 311 311 310 310 309 308 308 308 308 308 309 309 309 309 308 308 308 308 308 308 309 309 309 309 309 310 310 310 310 310 310 309 309 309 309 309 309 309 308 307 307 306 306 306 305 305 305 304 303 303
309 309 309 309 309 309 308 308 308 307 307 306 306 306 306 306 307 307 307 307 307 307 308 308 308 309 309 309 309 310 311 311 311 311 311 311 311 311 310 310 309 309 308 308 308 308 308 309 309 309 308 308 307 307 307 308 308 308 308 308 309 309 309 309 309 309 309 308 308 308 308 308 307 307 307 306 306 305 305 304 304 304 303 303 302 302
309 309 309 309 309 308 308 307 306 306 306 306 306 306 306 306 306 306 306 306 306 307 307 308 308 308 308 308 308 309 310 310 310 310 310 310 310 310 310 310 309 309 308 308 308 308 308 308 308 308 308 307 306 306 306 307 307 307 307 307 308 308 309 309 309 308 308 308 308 307 307 306 306 306 305 305 305 304 303 303 303 302 302 302 301 301
309 309 309 308 308 307 306 306 306 306 306 306 306 306 305 306 306 306 305 305 305 306 306 307 307 307 307 307 307 308 308 309 309 309 309 309 309 310 310 309 309 309 308 308 308 308 308 308 308 307 306 305 305 305 305 306 306 307 306 306 307 307 308 308 308 308 308 307 307 307 306 306 305 305 304 304 304 303 303 302 302 301 301 301 300 300
308 308 307 307 306 306 306 306 306 305 305 305 305 304 304 304 305 305 305 305 305 305 306 306 306 307 306 307 307 307 307 307 307 308 308 308 309 309 309 309 308 308 308 308 308 308 308 307 307 306 305 304 304 304 304 305 306 306 306 306 306 306 306 307 307 307 307 306 306 306 305 305 305 304 304 303 303 302 302 301 300 300 300 300 300 299
306 306 306 306 306 306 307 307 306 305 305 304 304 304 303 303 304 304 304 304 305 305 305 305 305 306 306 306 306 307 307 307 307 308 308 308 308 309 308 308 308 307 307 307 307 307 307 306 306 305 304 303 303 303 303 304 305 305 305 305 305 305 305 306 306 306 306 305 305 304 304 304 304 303 303 303 302 302 301 300 300 299 299 299 299 299
305 305 305 305 305 306 307 306 306 305 304 304 304 303 303 303 303 303 303 303 304 304 304 304 304 305 305 306 306 306 306 307 307 308 308 308 308 308 308 308 307 307 306 306 306 306 306 305 305 304 303 303 302 302 302 303 303 304 304 305 305 305 305 305 304 304 304 304 304 304 303 303 303 302 302 302 302 301 301 300 300 300 300 299 299 299
305 305 305 305 306 306 306 305 305 304 304 304 303 303 303 303 303 303 303 303 303 303 303 304 304 304 304 305 305 306 306 306 307 307 307 307 307 307 307 307 307 306 306 306 306 305 305 305 304 303 303 303 302 302 302 302 302 303 303 304 303 303 303 303 303 303 303 303 303 303 303 302 302 302 301 301 301 300 300 300 300 300 299 299 299 298
305 305 306 306 306 306 305 304 304 304 303 303 303 303 303 303 303 303 303 303 303 303 303 303 303 303 303 303 304 305 306 306 307 307 307 306 306 306 306 306 306 305 305 305 305 304 304 304 303 303 303 302 302 301 301 301 301 302 302 303 303 302 302 302 303 302 302 302 302 302 302 302 301 301 301 300 300 300 300 299 299 299 298 298 298 298
305 305 305 305 305 305 304 304 304 303 303 303 302 303 303 303 303 303 303 303 303 303 302 302 302 302 302 302 303 304 305 306 306 307 306 306 306 305 305 305 305 304 304 304 304 304 303 303 303 303 302 302 301 301 301 301 301 301 301 301 301 301 301 301 301 301 301 301 301 301 301 301 301 300 300 300 299 299 299 299 298 298 298 297 297 297
303 304 304 304 304 304 304 304 304 304 304 303 303 303 303 303 303 303 303 303 302 302 302 301 302 302 302 302 302 303 304 305 306 306 306 306 305 305 304 304 304 304 304 304 303 303 303 302 302 302 301 301 301 301 300 300 300 300 300 300 300 300 300 300 300 300 300 300 300 300 300 300 300 300 299 299 298 298 298 298 297 297 297 297 297 297
302 303 303 303 304 304 304 304 305 305 304 303 303 302 302 302 302 302 302 302 302 301 301 301 301 301 301 301 301 302 303 304 305 305 304 304 304 304 304 303 303 303 303 303 303 302 302 302 301 301 301 301 300 300 300 299 299 299 299 299 299 299 298 298 298 298 298 298 298 298 298 298 298 298 298 298 297 297 297 296 296 295 295 295 296 296
302 302 303 304 304 304 304 304 304 304 304 303 303 302 302 301 301 301 301 301 301 300 300 300 300 300 300 300 301 301 302 303 303 303 303 303 303 303 303 302 302 302 302 302 302 302 301 301 301 300 300 300 300 299 299 299 299 298 298 298 298 298 297 297 297 297 297 297 296 296 296 296 296 296 295 295 295 295 294 294 293 293 293 293 294 294
301 302 302 302 302 303 303 303 303 303 303 302 302 301 301 300 300 300 300 300 300 299 299 299 299 299 299 300 300 300 301 301 301 302 302 302 302 302 302 301 301 301 301 301 301 301 301 300 300 300 300 299 299 299 299 298 298 298 298 298 297 297 297 297 296 296 296 295 295 295 294 294 293 293 292 292 292 291 291 291 290 290 290 290 291 291
300 301 301 301 302 302 302 302 302 301 301 301 300 300 300 299 299 299 299 299 299 299 299 299 299 299 299 300 300 300 300 300 301 301 300 301 301 301 301 301 301 301 300 301 301 301 300 300 300 300 299 299 299 299 298 298 298 298 298 297 297 297 297 296 296 296 295 295 294 294 293 292 292 291 291 290 290 290 289 289 288 288 288 288 288 288
300 300 301 301 301 301 301 301 300 300 300 299 299 299 299 299 298 298 298 298 298 299 299 298 298 299 299 300 300 299 299 300 300 300 300 300 300 300 300 301 301 300 300 300 300 300 300 300 300 299 299 299 299 298 298 298 298 298 298 297 297 297 297 296 296 296 295 294 294 293 292 291 291 290 290 290 290 289 289 288 288 288 287 287 287 287
299 300 300 300 300 300 300 300 299 299 299 299 298 298 298 298 298 298 298 298 298 298 298 298 298 298 299 299 300 299 299 299 299 299 299 300 300 300 300 300 300 300 300 300 300 300 300 299 299 299 299 299 298 298 298 297 297 297 297 297 297 297 296 296 296 295 295 294 294 293 292 291 291 290 290 290 290 290 290 289 288 288 287 287 286 287
299 299 299 299 299 299 299 299 298 298 298 298 298 298 298 297 297 297 297 297 297 297 298 298 298 299 299 299 299 299 299 299 299 299 299 299 299 300 300 300 300 300 300 299 299 299 299 299 299 299 299 298 298 298 297 297 297 297 297 297 296 296 296 296 296 295 295 294 293 293 292 291 291 290 290 290 290 290 290 290 289 289 288 287 287 287
298 298 298 299 299 299 298 298 298 298 298 297 298 297 297 297 297 297 297 297 297 297 297 298 298 298 298 298 299 298 298 298 298 299 298 298 298 299 299 299 299 299 299 299 299 299 299 299 298 298 298 298 298 297 297 297 297 297 296 296 296 296 296 295 295 295 294 294 293 292 291 291 290 290 290 289 289 290 290 290 290 289 288 288 288 288
298 298 298 298 298 298 297 297 297 297 297 297 297 297 297 297 297 297 297 297 297 297 297 297 297 297 297 297 298 298 298 298 298 298 298 298 298 299 299 299 299 299 299 299 299 299 298 298 298 298 298 298 297 297 297 296 296 296 296 296 296 296 295 295 295 294 294 294 293 292 291 291 290 290 289 289 289 289 290 290 290 289 289 288 288 289
297 297 298 297 297 297 296 296 296 296 297 297 297 297 297 297 297 297 297 297 297 297 297 297 297 296 296 296 297 297 297 297 297 297 297 297 298 298 298 298 298 298 299 298 298 298 298 298 298 298 297 297 297 297 297 296 296 296 296 295 295 295 295 295 294 294 294 293 292 291 291 290 290 290 289 289 289 289 289 290 290 290 289 289 288 289
296 296 295 295 295 295 295 295 295 296 296 296 297 296 296 296 296 296 296 296 296 296 296 296 296 296 296 296 296 296 296 296 296 296 296 296 297 297 297 297 298 298 298 298 297 297 297 297 297 297 297 297 297 296 296 296 296 295 295 295 295 295 294 294 294 294 293 293 292 291 290 290 290 289 289 289 289 289 289 290 290 290 290 289 289 289
294 293 293 293 293 293 294 294 294 295 295 296 296 296 296 296 296 296 296 296 296 296 296 295 295 296 296 296 296 296 296 296 296 296 296 296 296 296 296 296 297 297 297 297 296 297 297 297 297 297 297 296 296 296 296 296 295 295 295 295 294 294 294 294 294 293 293 292 291 291 290 290 290 289 289 289 289 289 289 290 290 290 290 289 289 289
292 292 292 291 292 292 292 293 293 294 294 294 295 295 295 295 295 295 295 295 295 295 295 295 295 295 295 295 295 295 295 295 295 295 295 295 295 295 295 295 296 296 296 296 296 296 296 296 296 296 296 296 296 295 295 295 295 295 295 295 294 294 294 294 293 293 293 292 291 290 290 290 290 290 289 289 289 289 289 290 290 290 290 289 289 289
291 291 290 290 290 291 291 291 292 292 292 293 293 294 294 294 294 294 294 294 294 294 294 294 294 295 295 294 294 294 294 294 295 295 295 294 294 294 294 294 294 295 294 294 295 295 295 295 295 295 295 295 295 295 295 295 294 295 295 294 294 294 294 294 293 293 292 291 291 290 290 290 290 290 290 290 289 289 289 289 289 289 289 289 289 289
290 290 290 290 290 290 290 290 290 291 291 291 292 293 293 293 293 293 293 293 293 293 293 294 294 294 294 294 293 294 294 294 294 294 294 293 293 293 293 293 294 294 293 293 294 294 294 294 294 294 294 294 294 294 294 294 294 294 294 294 294 294 294 293 293 293 292 291 291 290 290 290 290 290 290 290 289 289 289 289 289 289 289 289 289 289
290 290 289 289 289 289 289 289 289 289 290 291 291 292 292 292 292 292 292 292 292 293 293 293 294 294 294 294 293 294 294 294 293 293 293 293 293 293 292 293 293 293 293 293 293 292 292 292 292 292 292 292 293 293 293 293 293 293 293 293 293 293 293 293 293 292 292 291 290 290 290 290 290 290 290 290 289 289 289 289 289 289 289 289 289 289
290 290 289 289 288 288 288 288 289 289 289 290 291 291 292 291 292 292 292 292 292 292 293 293 293 294 294 294 293 293 293 293 292 292 292 292 292 292 292 292 292 292 292 292 292 291 290 291 290 290 291 291 291 291 291 291 291 291 291 291 292 292 292 292 292 292 291 291 290 290 290 290 290 290 290 289 289 289 289 289 289 289 289 289 288 288
290 290 289 289 289 288 288 288 288 288 289 289 290 290 290 290 291 291 291 291 292 292 292 292 293 293 293 293 293 293 293 292 291 291 291 291 291 291 291 291 291 291 291 291 291 290 288 289 289 289 289 289 290 290 289 289 289 289 289 289 289 289 289 289 290 290 290 290 290 290 290 290 290 290 289 289 289 289 289 289 289 290 289 289 288 288
290 290 289 289 289 288 288 288 288 288 288 288 288 288 289 289 289 289 289 290 290 291 292 292 292 292 292 292 292 293 292 291 291 290 291 291 290 290 290 290 291 290 290 290 290 290 289 289 288 288 289 289 289 289 289 289 288 288 288 288 288 287 287 287 287 288 288 288 289 289 289 289 289 289 289 289 289 288 288 289 289 290 290 289 288 288
290 290 290 289 289 289 289 288 288 288 288 288 288 288 288 288 288 288 288 288 289 289 290 290 291 291 291 291 291 291 291 290 290 290 290 290 290 290 290 290 290 289 289 289 289 289 289 288 288 288 289 289 289 289 289 289 289 289 288 288 288 287 287 286 286 286 286 287 287 288 288 288 288 288 288 288 288 288 289 289 290 290 290 289 288 288
290 290 290 290 290 289 289 289 289 288 288 288 288 288 287 287 287 287 287 287 288 288 288 288 289 289 289 289 290 290 290 289 289 288 289 288 289 289 289 289 289 289 288 288 288 288 288 288 288 288 288 288 288 288 288 289 288 288 288 287 287 287 286 286 285 285 285 286 286 286 286 286 286 286 286 287 288 288 289 289 289 290 290 290 289 288
289 290 290 290 290 290 289 289 289 289 288 288 288 288 287 287 287 287 287 287 287 287 287 287 287 287 287 287 287 288 288 288 288 287 287 287 287 287 287 288 288 288 288 288 287 287 288 287 287 287 287 287 287 287 287 287 287 287 287 287 286 286 286 285 285 285 285 285 285 285 285 285 285 285 285 286 287 288 289 289 290 290 290 290 289 289
290 290 290 290 290 290 290 289 289 289 289 288 288 287 287 286 286 286 286 285 285 285 285 285 286 286 286 286 286 286 286 286 286 286 286 286 286 286 286 286 286 287 287 287 287 287 287 287 287 286 286 286 287 287 287 286 286 286 286 286 286 286 286 285 285 285 285 285 285 285 285 286 285 285 286 287 287 288 289 289 290 290 290 290 290 290
290 290 291 291 290 290 290 290 289 289 289 288 288 287 287 286 285 285 285 285 285 284 284 284 284 285 285 285 285 285 285 285 285 285 285 285 285 285 285 285 285 285 286 286 286 286 286 286 286 286 286 286 286 286 286 286 286 286 286 286 286 286 286 285 285 284 284 285 285 286 286 286 286 287 287 287 288 288 289 289 289 289 290 290 290 290
290 291 291 291 291 290 290 290 289 289 289 288 288 287 287 286 286 286 285 285 285 285 285 285 284 284 284 284 284 284 285 285 285 285 285 285 285 285 284 284 284 284 285 285 285 285 285 285 285 286 286 286 286 286 286 286 286 286 286 286 286 286 286 285 285 284 284 285 285 286 287 287 287 288 288 288 288 288 288 289 289 289 289 289 290 290
290 290 290 291 290 290 290 290 289 289 289 288 288 288 287 287 287 286 286 286 286 286 286 286 285 285 285 285 284 284 284 284 284 284 284 284 284 284 284 284 283 283 284 284 284 285 285 285 285 285 285 285 285 286 286 286 286 286 286 286 286 286 286 285 285 284 284 284 285 285 286 287 287 288 288 288 288 288 288 288 288 288 289 289 289 289
291 290 290 290 290 290 290 290 289 289 289 289 289 288 288 288 287 287 287 287 287 286 286 286 286 286 286 285 285 285 284 284 284 284 284 284 284 284 284 284 283 283 283 283 283 284 284 284 284 284 284 284 285 285 285 285 286 286 286 285 285 285 285 285 285 284 284 284 284 285 285 287 287 288 288 288 288 288 287 287 287 288 288 288 288 289
291 291 291 291 290 290 290 290 290 289 289 289 289 289 288 288 288 288 287 287 287 287 287 287 286 286 286 286 286 285 285 285 285 284 284 284 284 284 284 284 283 283 282 282 283 283 283 283 284 284 284 284 284 284 284 285 285 285 285 285 285 285 285 285 285 285 285 284 284 284 284 285 286 287 287 288 288 287 287 287 287 287 287 288 288 288
291 291 291 291 291 290 290 290 290 290 289 289 289 289 288 288 288 287 287 287 287 287 286 286 286 286 286 286 286 286 285 285 285 285 285 284 284 284 284 284 283 283 282 282 282 282 282 282 282 283 283 283 283 283 284 284 284 285 285 285 285 285 285 285 285 285 285 285 285 284 284 284 285 286 287 287 287 287 287 287 287 287 287 287 287 288
291 291 291 291 291 291 290 290 290 290 290 289 289 289 288 288 287 287 287 287 286 286 286 286 286 285 285 285 285 285 285 285 285 285 285 285 285 284 284 284 284 283 283 282 282 282 282 282 282 282 282 282 282 283 283 283 284 284 284 285 285 285 285 285 285 285 285 285 285 285 284 284 284 285 285 286 286 287 287 287 287 287 287 287 287 287
292 291 291 291 291 291 290 290 290 290 290 289 289 288 288 287 287 287 287 286 286 286 286 286 286 285 285 285 285 285 285 285 285 285 285 285 285 285 285 284 284 284 283 283 282 282 282 282 281 281 281 282 282 282 283 283 283 283 284 284 284 285 284 284 285 285 285 285 285 285 285 284 284 284 285 285 286 286 286 287 287 287 287 287 287 287
292 291 291 291 291 291 290 290 290 289 289 288 288 287 287 287 286 286 286 286 286 286 286 286 285 285 285 285 285 285 285 285 285 285 285 285 285 285 285 284 284 284 283 283 283 282 282 282 281 281 281 282 282 282 282 283 283 283 283 283 284 284 284 284 284 284 285 285 285 285 285 285 284 284 284 285 285 285 285 285 286 286 286 287 287 287
292 291 291 291 291 290 290 290 289 289 288 287 287 287 286 286 286 286 286 286 286 286 286 286 285 285 285 285 285 284 284 284 285 285 285 285 285 285 285 285 284 284 283 283 283 283 282 282 282 282 281 281 282 282 282 282 282 283 283 283 283 283 284 284 284 284 284 284 285 285 285 285 284 284 284 284 285 285 285 285 285 285 285 285 286 287
291 291 291 291 290 290 290 289 289 288 287 287 286 286 286 286 286 286 286 286 286 286 285 285 285 285 285 284 284 284 284 284 284 285 285 285 285 285 285 285 284 284 284 283 283 283 282 282 282 282 282 281 281 281 282 282 282 282 282 282 283 283 283 283 283 284 284 284 285 285 285 285 284 284 284 284 284 284 284 285 285 285 285 285 285 285
291 291 291 291 290 290 289 289 288 288 287 287 286 286 286 286 286 286 286 286 285 285 285 284 284 284 284 284 284 284 284 284 284 285 285 285 285 285 285 285 284 284 284 283 283 283 282 282 282 282 282 282 281 281 281 282 282 282 282 282 282 282 282 282 282 283 283 284 284 284 285 285 284 284 284 284 284 284 284 284 284 284 284 284 284 285
291 291 291 290 290 290 289 289 288 288 287 287 287 286 286 286 286 286 286 285 285 285 284 284 284 284 284 283 284 284 284 284 284 285 285 285 285 285 285 285 284 284 284 283 283 282 282 282 282 282 282 282 282 281 281 281 281 282 281 282 282 282 282 282 282 282 283 283 284 284 284 284 284 284 284 284 284 284 284 284 284 284 284 284 284 284
291 290 290 290 289 289 289 288 288 288 287 287 287 287 286 286 286 286 286 285 285 285 284 284 284 283 283 283 283 283 283 283 284 284 285 285 285 285 285 284 284 284 283 282 282 282 282 282 282 282 283 283 283 282 282 282 281 281 281 281 281 281 281 281 282 282 282 283 283 284 284 284 284 284 284 284 283 283 283 283 283 283 284 284 284 284
Wind_Speed
9 10 11 11 10 10 10 11 10 9 9 8 9 10 11 12 12 12 13 12 12 12 11 10 10 9 8 7 6 6 7 9 10 11 11 11 11 11 11 11 11 10 9 8 7 7 6 6 6 6 7 8 7 6 5 5 5 4 3 3 3 3 3 2 2 2 3 4 5 5 6 7 8 8 9 9 10 10 10 10 9 8 7 7 7 6
9 10 11 11 11 10 11 12 12 11 11 12 12 13 14 14 14 15 14 14 14 14 13 12 11 10 9 8 7 7 7 8 9 10 10 10 10 11 11 11 10 9 8 7 6 6 6 6 6 7 8 8 7 6 6 5 5 5 5 5 5 5 4 4 4 4 4 5 5 6 7 7 8 8 8 8 8 8 8 8 8 7 6 6 6 5
10 11 12 12 12 12 12 13 14 14 14 15 16 17 17 18 18 17 16 16 15 15 14 13 11 10 9 8 7 7 7 8 9 9 10 10 10 10 10 10 9 7 6 6 6 6 6 6 7 7 7 6 5 5 5 5 6 6 6 7 7 7 6 6 6 6 6 6 5 6 7 8 8 8 8 8 8 8 7 7 7 6 6 5 4 4
11 12 13 13 13 14 14 15 16 16 17 17 18 19 19 19 19 18 18 17 16 16 15 13 12 10 9 9 8 8 8 8 8 8 9 10 10 10 10 9 8 7 7 6 6 6 7 7 8 7 6 4 3 3 3 4 5 6 7 7 8 8 8 8 8 7 6 6 5 5 5 6 7 8 8 8 7 7 7 6 6 5 4 3 3 3
11 11 13 14 15 15 15 16 17 18 18 18 18 18 17 17 17 17 17 16 16 15 14 13 12 11 10 9 9 10 10 10 9 8 8 9 10 11 11 10 9 9 8 7 7 7 8 8 8 7 6 5 4 4 4 5 6 6 6 7 7 7 7 8 8 8 7 6 5 5 5 5 6 6 7 6 6 6 6 5 4 4 3 3 3 3
11 10 12 13 14 15 16 17 17 17 17 17 16 15 15 14 14 14 15 14 14 13 12 11 11 10 10 9 9 10 11 11 11 10 9 9 10 11 12 11 11 11 10 9 8 9 9 9 9 7 6 6 6 6 6 7 7 8 7 7 7 7 7 8 8 8 8 8 8 7 7 7 7 6 6 6 6 5 5 4 4 3 3 3 2 2
9 9 10 12 13 15 16 17 16 16 15 15 15 14 14 14 14 14 14 13 13 12 11 10 9 9 8 7 8 9 11 12 12 12 11 10 11 13 13 12 12 12 11 11 10 10 10 10 8 7 6 6 6 6 7 8 9 9 9 8 8 8 8 8 9 9 9 10 10 10 10 10 9 9 8 8 7 6 5 5 4 4 4 3 3 3
8 10 12 13 14 15 15 14 13 13 13 14 15 15 15 14 14 14 13 12 12 11 11 10 9 7 7 6 6 7 9 10 10 10 10 11 12 13 13 13 13 13 12 12 11 11 11 9 7 5 5 5 5 6 7 8 9 9 9 9 9 9 9 9 9 9 9 10 11 11 12 12 11 11 10 9 9 8 7 6 5 5 4 3 3 3
10 11 12 13 13 13 12 11 10 10 12 14 15 15 14 14 14 13 13 12 12 11 11 10 9 8 6 5 5 5 6 6 6 7 9 11 13 14 14 14 13 13 13 13 12 11 10 8 6 4 4 4 4 5 6 7 8 8 9 9 9 10 10 10 9 9 9 10 10 11 12 12 12 12 11 11 10 10 9 9 8 6 5 4 3 3
12 12 12 13 12 12 11 10 10 12 14 15 15 14 13 13 12 12 12 12 12 12 11 10 9 8 7 5 4 4 4 4 4 6 9 12 15 16 15 15 14 14 13 13 12 11 9 7 5 3 3 3 4 4 5 7 7 8 8 9 9 9 9 10 10 10 10 10 10 10 10 11 11 12 12 12 12 11 11 10 9 8 6 5 4 4
11 12 12 12 11 11 11 11 13 15 15 15 14 13 12 11 10 10 10 11 11 12 11 10 9 8 7 6 4 3 3 5 7 9 11 14 15 16 16 16 15 14 13 12 11 10 8 6 4 3 3 3 3 3 4 6 7 8 8 9 9 9 10 10 10 10 10 10 10 10 10 10 10 11 11 12 12 11 11 10 9 8 6 6 5 5
9 9 9 9 9 9 11 13 14 15 14 13 12 11 11 9 8 7 8 9 10 11 11 11 10 9 7 5 4 3 5 8 10 12 14 15 16 16 16 16 15 14 13 12 11 9 8 6 4 2 3 3 4 4 4 6 7 7 8 9 10 10 11 11 11 10 10 10 11 11 11 11 11 11 11 11 11 11 10 9 9 8 7 7 7 7
9 9 9 9 10 11 11 12 13 13 13 12 10 9 8 7 7 6 6 8 10 11 11 10 10 9 8 5 3 4 8 11 13 15 16 17 17 17 16 16 15 14 13 12 11 9 7 5 3 2 3 3 4 4 4 6 7 8 8 8 9 9 10 10 10 10 10 10 11 11 11 11 11 12 12 11 11 10 10 10 9 9 9 9 9 10
10 10 10 10 10 11 11 11 11 11 11 10 9 7 7 7 7 7 7 8 10 11 11 10 10 9 8 6 4 5 9 13 15 16 18 18 18 18 17 16 16 15 14 13 11 10 8 5 3 3 3 3 4 4 4 5 7 8 8 8 8 8 8 8 8 8 9 9 9 10 10 10 11 12 12 12 12 12 12 12 11 11 11 11 11 12
9 9 9 10 10 9 9 9 9 9 9 8 7 7 7 8 8 8 8 8 9 10 10 10 10 9 8 6 5 6 10 14 16 17 19 19 19 19 18 17 16 16 14 13 11 10 8 6 4 3 3 3 4 4 4 5 6 7 8 9 8 8 8 7 7 7 8 8 9 9 10 10 11 12 13 14 14 14 14 14 13 13 13 13 13 13
8 8 8 8 8 8 8 8 7 7 7 7 7 7 7 8 9 9 8 8 8 9 8 8 7 7 6 5 5 6 10 14 16 17 18 19 19 18 18 16 15 14 13 12 11 9 8 6 5 3 3 3 4 4 4 5 5 6 7 8 8 8 8 8 8 8 8 9 9 10 10 11 11 12 13 13 14 14 14 14 13 13 13 13 13 14
8 8 8 8 8 8 8 7 7 7 7 8 8 9 9 9 9 8 8 8 8 7 6 5 3 2 3 3 3 5 9 12 14 15 16 17 17 17 17 16 15 14 12 11 10 9 8 7 5 4 4 4 4 5 5 5 6 6 7 7 8 9 9 9 9 9 9 9 9 10 10 10 10 10 11 11 12 12 12 12 11 11 12 12 13 13
7 7 8 8 8 7 7 6 6 6 7 8 9 9 9 9 8 7 7 7 7 6 6 4 3 2 2 2 3 4 6 11 14 14 14 15 16 16 16 15 15 14 13 12 11 10 9 8 7 6 5 5 5 5 6 6 7 7 8 8 9 10 10 10 10 9 9 9 9 9 9 9 9 9 9 9 9 10 10 10 10 10 10 11 11 12
6 6 6 6 6 6 6 6 6 6 7 8 8 9 9 8 8 7 7 7 7 7 6 5 4 4 4 3 4 5 5 8 12 14 13 13 14 15 15 14 14 14 14 13 12 11 10 10 9 8 7 6 6 6 7 7 8 8 9 10 10 11 11 11 11 10 10 10 9 9 9 9 9 8 8 8 8 8 9 9 9 9 9 9 10 10
5 5 5 5 6 6 5 5 5 6 7 8 8 9 8 8 8 7 6 6 7 8 7 7 6 6 5 5 5 5 5 6 10 13 14 14 14 14 15 14 14 14 15 14 13 12 12 11 11 10 9 8 8 7 7 8 8 9 10 11 11 12 12 12 12 11 11 10 10 10 10 9 9 9 8 8 8 8 8 9 9 9 8 8 8 8
5 4 4 5 5 5 5 6 6 6 7 8 8 7 7 7 7 6 5 5 6 7 8 8 8 8 7 6 6 6 6 5 8 12 13 13 14 14 15 15 14 15 15 15 14 13 13 13 12 12 11 10 10 9 8 8 8 9 10 11 12 13 13 13 12 12 12 11 11 11 10 10 10 9 9 9 8 8 8 9 9 9 8 8 7 7
6 6 6 7 6 6 7 7 7 7 8 7 6 6 6 6 6 6 5 4 5 6 7 8 8 8 7 7 6 7 6 5 7 10 11 11 12 14 15 15 15 15 15 15 15 14 14 14 13 13 13 12 12 11 10 10 9 9 10 12 13 13 13 13 13 13 13 12 12 12 11 11 10 10 10 9 9 9 9 9 9 9 9 8 7 7
8 9 8 8 7 7 8 8 8 8 7 7 6 5 5 5 4 4 4 4 4 5 6 7 8 8 8 8 8 7 7 6 6 8 9 8 9 12 14 15 15 15 16 16 16 15 15 15 15 14 14 14 14 13 13 12 11 11 12 13 13 14 14 14 14 14 14 13 13 13 12 12 11 11 11 10 10 9 9 9 9 9 9 8 7 7
7 8 8 8 7 7 7 7 7 7 7 6 6 6 6 6 5 5 5 4 3 4 5 6 6 7 7 7 7 7 7 7 7 8 9 8 9 10 12 13 13 14 15 16 16 16 16 16 16 15 15 15 15 15 15 14 14 14 14 14 15 15 15 15 15 15 14 14 14 13 13 12 12 11 11 11 10 10 9 9 9 9 9 8 8 7
5 5 6 6 6 6 5 5 6 6 6 6 5 5 5 6 6 7 7 7 6 6 6 6 6 6 6 6 6 6 7 7 7 8 9 7 7 9 10 10 11 11 12 14 15 15 15 16 16 16 16 16 16 16 16 16 16 16 16 16 16 16 16 16 16 15 15 15 14 14 13 13 12 12 12 11 11 10 10 9 9 9 9 9 8 8
4 4 5 5 5 5 5 5 5 5 5 5 5 4 5 5 6 7 8 8 7 7 6 5 5 5 6 6 6 5 6 6 7 8 9 7 6 7 8 9 9 9 10 12 13 14 14 15 15 15 15 15 16 16 16 17 17 17 17 17 17 17 17 16 16 16 16 16 15 14 14 13 13 12 12 12 11 10 10 10 10 10 9 9 9 9
4 4 4 4 4 4 4 4 4 4 5 5 4 4 4 4 5 6 6 6 6 6 5 4 4 4 5 4 4 4 4 4 6 7 9 9 7 6 7 8 8 9 9 11 12 13 14 15 15 15 15 15 14 14 15 15 16 17 17 17 17 17 17 17 17 17 17 16 16 15 14 14 13 13 12 12 11 11 10 10 10 10 9 9 10 10
3 3 3 3 4 4 4 3 4 4 4 4 4 4 3 3 3 2 3 4 4 4 4 4 4 4 3 3 3 3 4 4 5 6 8 8 6 5 7 8 8 9 9 11 13 15 15 16 16 16 15 14 13 12 12 13 14 15 16 17 18 18 18 18 18 18 18 17 16 16 15 14 14 13 13 12 11 11 11 11 11 10 10 10 10 11
3 3 3 3 4 4 4 4 4 4 3 3 3 3 3 3 3 3 3 3 3 3 4 5 5 4 3 2 2 4 4 5 5 5 6 6 6 5 7 8 8 9 9 8 10 11 12 14 14 14 13 13 12 12 11 11 12 13 15 16 18 19 19 19 19 19 19 18 17 16 16 15 14 14 13 13 12 12 12 11 11 11 10 10 10 11
3 3 3 3 3 4 4 4 4 3 3 2 2 1 1 2 3 4 4 4 3 3 5 5 5 4 3 3 3 3 4 4 3 3 5 5 5 5 7 7 8 8 7 5 4 4 5 7 9 9 10 11 11 11 10 10 11 12 13 15 17 18 20 20 20 20 20 19 18 17 16 16 15 14 14 13 13 12 12 12 12 11 11 11 11 11
3 3 3 3 3 3 3 3 3 3 2 2 1 0 0 1 3 4 4 4 4 4 4 4 4 4 3 3 2 1 2 2 1 1 2 4 5 5 6 6 7 7 7 4 2 2 2 3 4 5 6 7 9 9 9 9 9 10 11 13 15 17 18 20 21 21 21 20 19 18 17 16 16 15 15 14 13 13 12 12 12 13 13 12 11 11
4 4 3 3 3 3 3 3 2 2 2 1 1 1 1 1 1 2 2 3 4 5 5 4 3 3 3 3 2 2 2 2 2 2 2 3 4 5 7 6 6 7 7 6 5 3 1 2 2 2 3 4 6 6 7 7 7 8 9 10 12 14 15 17 19 20 21 21 20 20 18 18 17 16 16 15 14 14 13 13 13 14 14 13 12 12
4 4 3 3 3 3 2 2 2 2 1 1 1 0 1 1 1 1 1 2 2 3 4 4 4 3 4 4 4 3 3 3 3 3 3 2 4 5 6 6 6 7 7 8 8 7 4 4 3 3 4 5 6 7 7 8 8 9 10 11 12 12 13 14 16 18 19 20 20 20 20 19 18 18 17 16 15 15 14 14 14 15 15 15 14 13
5 4 3 3 2 2 2 2 2 2 2 2 2 2 1 1 1 1 2 2 2 3 3 4 4 4 4 4 4 4 4 3 3 3 3 3 4 5 5 6 6 7 7 8 8 8 6 7 6 5 6 7 9 10 10 11 12 12 13 13 13 13 13 13 14 15 16 18 19 20 20 20 20 19 18 17 16 15 15 15 15 15 16 16 15 14
4 3 3 2 2 2 2 2 3 3 3 3 3 3 3 3 3 3 3 3 3 3 3 4 4 4 4 5 5 5 5 4 4 4 4 4 4 5 6 6 6 7 7 7 7 6 5 7 8 7 6 7 9 11 13 13 13 14 14 14 14 13 13 12 12 13 14 15 17 18 18 19 19 19 18 17 17 16 16 15 15 16 16 16 15 15
4 3 3 3 3 3 2 3 3 4 4 4 4 4 4 5 5 5 5 5 4 4 4 4 5 5 6 6 6 7 7 7 6 6 6 6 6 7 6 6 6 7 7 8 7 6 5 6 7 8 8 8 8 9 10 11 12 12 13 13 12 12 12 12 12 12 13 14 15 15 15 15 16 16 17 17 16 16 15 15 16 16 16 16 16 15
3 4 4 4 4 4 4 4 4 4 4 4 4 5 5 6 6 6 6 5 5 5 5 5 5 5 6 6 6 7 8 8 8 8 8 8 9 8 8 7 7 7 8 8 9 8 7 7 7 8 8 8 7 6 6 9 11 11 11 11 11 11 11 11 11 12 13 14 14 14 13 13 13 14 15 16 16 15 15 15 15 16 16 16 16 15
4 4 5 6 6 6 5 5 5 5 5 5 5 5 6 6 6 6 6 6 6 5 5 5 5 5 5 6 6 7 7 8 9 9 9 10 10 10 9 9 9 9 9 9 10 9 9 8 7 6 7 8 8 8 9 10 11 12 11 11 10 10 11 11 12 13 14 15 14 13 12 12 12 13 14 15 16 16 15 15 15 16 16 16 16 16
5 5 5 6 6 6 6 5 5 5 5 5 5 6 6 6 6 6 6 6 6 6 6 6 6 6 6 6 6 6 7 7 8 9 9 9 9 10 10 10 10 10 10 11 11 11 10 9 8 7 7 7 8 8 9 10 10 10 10 10 11 11 11 11 11 13 15 15 15 14 13 13 13 13 14 16 16 17 16 16 16 16 16 17 17 17
7 6 6 5 6 6 6 5 5 5 5 5 6 6 7 7 7 7 7 7 7 7 7 7 7 7 7 7 7 7 7 7 8 8 9 9 9 9 9 9 10 10 11 11 12 13 12 12 12 11 10 9 8 8 8 8 9 9 9 9 10 11 11 10 10 12 14 16 16 16 15 15 14 14 15 16 17 17 17 17 17 17 17 17 18 18
8 7 6 6 6 6 7 6 6 5 5 6 7 7 8 8 8 8 8 8 8 8 8 8 8 8 8 7 7 7 7 7 7 8 8 8 8 8 9 9 9 10 11 12 13 13 14 14 14 14 14 13 13 12 11 10 9 9 9 9 10 11 11 10 9 10 12 14 16 17 17 17 16 16 16 16 16 17 17 18 18 18 17 18 19 19
8 7 6 6 7 7 7 7 7 7 7 7 8 8 9 9 9 9 10 10 10 10 9 9 9 9 9 9 8 8 7 7 7 7 7 7 7 8 8 8 8 9 10 12 13 14 14 15 15 16 16 15 14 14 14 13 11 10 9 9 10 10 10 10 9 8 9 12 14 16 18 18 18 17 17 16 16 16 16 17 17 17 18 18 19 20
8 7 7 7 7 7 7 8 8 8 8 9 9 10 10 11 11 11 11 11 11 10 10 10 10 11 11 11 11 9 8 7 7 6 6 6 6 7 7 8 8 9 10 11 12 13 14 14 15 15 16 16 15 15 15 15 14 12 11 10 10 9 7 8 9 9 8 9 11 13 16 19 19 19 18 18 17 17 17 16 16 16 17 18 19 20
8 8 8 8 8 8 8 8 8 8 9 9 10 11 11 12 11 11 11 11 11 10 9 9 10 11 12 12 12 11 10 9 8 7 7 6 6 7 7 8 9 9 10 11 12 13 13 14 14 14 14 14 15 15 16 16 16 15 14 12 12 11 10 10 10 11 10 10 10 11 13 16 18 19 19 19 19 19 18 18 17 17 16 17 17 19
8 8 8 8 8 8 8 9 9 10 10 11 11 11 11 11 11 11 11 11 11 10 8 8 9 9 10 11 12 12 11 11 10 9 8 8 8 8 8 9 9 10 11 12 13 13 13 14 14 13 13 12 13 14 16 16 17 17 17 16 15 14 14 14 13 13 13 12 11 10 11 12 15 18 19 20 20 20 20 20 19 19 18 17 17 18
10 9 9 9 9 9 9 10 10 10 11 11 11 10 9 9 9 9 10 10 10 10 9 8 8 9 10 12 12 12 12 12 11 11 10 10 10 9 9 10 10 10 11 12 13 13 14 14 14 13 13 13 13 15 16 16 17 18 18 18 17 16 16 16 16 15 15 14 13 12 11 11 13 17 19 20 21 21 21 21 21 21 20 19 19 19
12 11 10 10 10 10 9 9 9 9 9 9 9 8 8 7 7 8 9 10 10 10 9 9 9 10 12 13 13 13 13 13 13 13 12 12 11 10 10 10 10 10 11 12 13 14 15 15 15 15 15 14 15 16 17 17 17 18 19 19 18 18 18 18 17 17 16 16 15 13 12 12 14 17 19 20 21 21 22 22 22 22 21 21 21 21
14 13 12 11 11 10 9 9 8 8 8 8 8 7 7 7 7 8 9 10 10 9 9 9 9 10 12 13 13 14 14 14 15 14 14 13 12 12 11 11 11 11 11 12 12 14 15 16 17 17 18 18 17 18 19 19 19 19 19 19 19 19 19 19 19 18 17 17 16 15 14 14 15 17 18 19 20 20 21 22 22 22 22 22 22 22
13 13 13 12 11 11 10 9 9 8 8 8 8 8 8 7 7 8 9 9 9 9 8 9 9 11 12 13 13 14 14 14 14 14 14 14 13 13 12 11 11 11 11 12 13 14 15 16 17 18 19 20 21 22 22 22 22 22 21 20 20 19 19 19 19 18 17 17 17 17 16 16 16 16 16 18 19 20 20 21 21 22 22 22 22 23
12 12 12 12 12 12 11 10 10 9 9 9 9 9 8 8 8 8 9 9 9 9 9 9 10 11 12 13 13 14 14 14 14 13 13 13 13 13 12 12 11 11 11 11 11 12 13 15 16 17 18 19 21 23 24 24 23 22 22 21 21 20 19 19 19 18 17 17 17 17 17 17 17 16 16 17 18 19 19 20 21 22 22 22 22 23
12 12 12 13 13 13 12 12 11 10 10 9 9 9 9 9 8 9 9 10 10 10 11 11 11 12 12 13 14 14 14 14 14 14 13 13 13 12 12 12 11 10 9 8 8 8 8 8 10 12 14 15 15 17 19 21 21 21 20 20 20 19 19 18 18 17 17 16 16 17 17 17 17 17 17 18 17 17 18 19 20 21 21 21 21 22
Wind_Direction
285 293 299 303 307 312 316 314 317 321 323 320 316 315 314 313 311 307 306 305 305 306 309 313 316 318 315 305 288 270 260 253 247 245 246 248 250 252 254 257 262 268 276 282 288 291 292 287 273 251 232 222 218 220 229 236 232 214 189 164 142 126 115 110 109 110 118 137 151 159 160 157 156 158 161 166 169 171 173 174 176 180 187 195 199 201
291 295 297 300 303 307 311 314 319 323 323 318 313 309 307 306 305 303 303 303 303 304 307 310 312 312 308 296 280 266 261 256 252 248 247 247 249 252 258 263 268 273 278 283 286 286 282 273 254 233 218 213 212 214 217 217 209 195 177 164 155 147 140 136 136 137 142 151 165 176 181 181 180 179 178 179 179 181 184 183 182 183 189 191 188 182
295 299 298 299 303 308 312 317 320 321 319 314 308 304 301 300 298 298 298 300 301 303 306 309 311 310 304 289 268 249 242 244 246 247 246 245 246 252 259 266 271 275 277 280 279 275 267 255 237 220 208 204 201 199 194 188 182 176 168 163 161 160 159 158 158 159 162 166 174 181 185 187 186 184 182 180 179 180 183 184 184 184 182 174 163 152
295 303 304 306 309 312 314 317 318 316 312 307 302 298 296 295 294 295 296 297 299 300 301 304 306 305 300 283 262 241 227 222 226 233 238 240 242 248 254 259 262 264 266 269 269 263 253 242 230 221 216 218 221 216 201 191 184 177 171 166 165 167 171 175 177 178 179 181 182 184 186 186 185 183 181 178 176 176 178 180 182 180 173 154 132 121
292 299 302 306 309 311 310 311 311 309 306 302 299 297 296 295 296 297 298 299 298 298 298 298 299 298 293 278 259 241 229 220 216 219 228 234 239 242 246 248 247 246 250 254 256 251 243 235 230 230 237 254 265 260 240 222 210 199 188 179 175 177 181 187 191 193 195 197 198 195 191 185 182 180 179 177 175 174 174 176 179 178 171 151 133 123
283 287 293 300 304 306 306 306 305 303 302 300 301 302 304 305 307 309 310 309 307 304 302 300 297 292 286 273 255 241 233 229 227 227 227 231 234 235 235 237 236 236 238 241 242 240 236 231 230 236 251 269 274 265 247 233 225 218 210 201 196 193 194 196 197 198 200 204 205 203 200 195 189 185 184 183 182 180 181 185 190 193 191 185 177 170
278 284 292 300 301 300 300 301 302 301 302 304 308 312 315 317 318 318 318 318 317 315 314 310 303 295 287 274 256 242 235 234 235 234 231 228 228 227 225 226 227 228 230 231 232 232 229 227 229 239 260 274 273 259 241 228 223 220 218 214 210 207 205 204 203 203 203 204 204 204 204 202 199 195 192 192 193 195 198 202 204 206 206 209 213 213
292 293 295 297 297 297 298 299 299 300 303 307 311 314 315 316 316 315 315 315 316 318 320 319 316 310 302 287 266 249 240 237 235 231 224 221 219 217 217 218 220 221 222 222 223 223 223 223 229 245 272 281 273 253 233 222 218 216 215 214 213 212 211 212 213 211 208 205 202 200 200 200 201 200 199 199 200 201 202 201 199 197 197 207 222 234
292 292 290 289 291 294 295 294 293 295 299 303 306 307 307 306 306 308 311 312 313 316 319 321 323 322 318 303 282 263 249 242 233 224 215 211 210 209 211 213 215 216 216 216 216 217 218 221 231 255 284 290 277 253 231 220 216 215 212 211 210 210 211 213 216 217 216 211 205 199 196 197 199 201 202 204 206 207 206 203 198 195 197 206 223 241
282 283 284 286 286 286 285 287 288 290 294 298 300 300 300 298 297 299 304 307 310 313 315 319 324 328 327 318 301 279 257 235 218 209 205 205 205 206 209 211 212 213 212 213 213 214 216 221 234 264 294 300 288 261 234 222 218 216 214 211 206 204 205 208 213 217 219 219 216 211 207 206 206 206 207 209 211 212 212 210 208 209 213 220 231 244
277 279 280 281 281 280 281 285 288 291 294 295 297 299 301 302 300 295 290 291 297 303 308 315 323 330 332 330 318 288 241 213 197 191 191 194 198 202 206 209 210 210 210 210 211 214 217 222 236 268 303 311 298 270 238 223 219 218 216 211 205 200 201 203 208 214 221 225 228 228 227 225 223 220 217 215 214 215 216 218 221 226 233 241 248 255
274 278 278 276 278 282 286 289 292 294 295 295 297 301 306 310 309 299 283 275 278 287 297 308 317 325 331 332 321 267 222 204 194 187 185 187 191 196 201 204 206 207 208 209 211 213 216 222 236 269 305 312 302 275 243 226 219 218 216 211 205 201 200 201 206 213 222 226 229 232 235 238 238 235 229 223 221 222 225 229 235 243 251 258 263 266
278 280 281 280 281 282 284 284 285 286 288 289 290 292 299 304 304 295 279 266 267 277 288 299 309 317 322 323 302 235 210 200 195 192 190 191 193 196 198 202 205 207 209 210 212 213 214 218 233 266 298 306 299 278 250 231 222 219 218 215 210 206 204 203 207 213 220 224 227 229 233 240 244 244 241 237 235 237 241 247 253 259 265 269 271 272
279 280 279 276 275 276 278 277 274 271 274 279 283 284 288 291 290 286 277 268 270 278 288 296 303 309 312 310 282 228 208 200 197 195 195 196 198 199 200 203 207 211 213 212 211 211 211 213 223 254 286 297 293 279 258 238 228 224 225 227 226 224 220 218 218 221 225 229 233 236 240 246 251 254 255 256 258 261 264 267 270 273 274 275 274 274
274 275 272 268 268 272 277 278 276 273 273 278 282 286 289 288 289 288 286 278 278 284 291 297 303 306 305 297 270 231 213 203 196 192 191 194 199 202 202 203 207 212 214 212 209 208 209 209 216 239 272 286 287 277 263 247 237 232 233 237 241 243 243 243 244 245 248 251 253 257 259 261 262 264 266 268 271 274 276 277 278 278 277 276 275 273
270 272 272 271 273 278 284 286 283 279 277 279 284 288 291 292 293 294 292 283 282 286 292 302 310 312 306 293 268 236 219 208 199 193 189 189 193 199 201 200 203 209 212 210 208 207 208 208 214 231 254 270 277 276 266 254 246 242 240 241 244 247 250 253 257 260 263 265 267 270 271 272 272 271 272 273 274 275 277 278 278 277 276 274 272 270
270 273 277 281 284 286 289 289 286 282 282 284 289 292 295 295 295 293 289 282 279 279 283 292 306 319 312 309 284 249 226 217 209 202 194 189 189 194 198 198 200 205 211 211 211 211 212 213 218 227 240 253 264 266 261 254 248 244 242 242 243 245 248 252 256 260 264 268 271 273 275 276 276 276 276 276 276 276 276 276 275 273 271 270 268 265
272 276 280 281 282 286 291 294 294 292 292 295 298 299 300 297 293 287 278 272 267 264 266 268 259 251 278 285 289 274 242 226 220 214 206 197 193 193 196 199 202 206 211 214 216 218 221 225 228 232 238 246 253 256 255 251 246 241 239 239 239 241 245 249 253 258 263 268 272 275 277 277 277 277 277 278 278 278 278 277 274 272 269 266 263 259
276 282 286 285 283 283 287 296 301 303 304 304 306 307 307 304 298 288 274 265 261 259 257 251 248 248 254 261 276 283 270 237 227 223 218 210 203 200 198 201 205 210 213 217 221 225 229 234 238 242 246 250 251 251 250 249 246 242 239 237 237 239 243 247 251 256 261 266 271 274 276 277 276 275 274 275 277 279 280 280 278 275 271 266 261 255
270 282 289 286 281 279 282 288 293 297 301 302 305 307 307 307 306 299 284 267 260 258 258 254 247 245 249 256 266 277 280 256 234 226 224 221 216 211 206 206 208 213 216 220 225 229 232 237 242 246 251 254 254 252 250 251 248 244 240 237 237 238 241 245 250 255 260 264 268 271 273 274 273 271 270 269 271 274 277 280 280 279 276 270 261 253
254 266 267 266 269 272 272 276 280 285 288 294 301 306 308 309 311 310 303 285 267 260 258 254 248 245 249 253 261 268 274 264 237 227 226 226 225 222 218 216 217 220 222 226 229 232 234 237 241 246 250 253 255 256 255 255 251 245 239 236 236 238 241 244 249 253 258 262 265 268 269 270 270 268 267 266 265 267 271 275 278 279 278 272 262 251
237 243 250 255 263 270 272 275 277 279 281 288 297 304 303 305 307 312 317 307 283 263 253 248 247 247 248 251 256 263 268 269 244 229 226 225 229 232 229 226 226 228 230 233 236 238 238 240 242 245 248 251 253 254 254 254 251 244 237 234 235 237 240 244 248 252 257 261 264 266 267 268 268 267 265 264 263 262 264 267 271 274 276 272 260 248
238 242 251 258 264 271 276 278 278 278 281 283 284 283 284 286 290 297 302 301 286 268 255 249 248 250 252 254 256 260 262 261 252 238 227 223 230 236 236 234 234 235 237 240 243 245 245 245 246 247 250 251 253 253 253 251 248 243 237 235 235 237 240 244 247 252 256 259 262 265 266 267 266 265 264 263 261 260 259 259 262 266 269 267 257 245
249 252 257 261 265 269 273 276 278 280 283 284 282 279 277 275 273 275 279 280 275 268 266 262 261 261 262 263 265 265 261 256 247 235 228 227 233 239 241 240 240 241 242 244 247 249 251 251 252 253 253 254 255 255 254 251 248 243 238 236 236 237 240 243 247 251 255 259 261 264 265 265 265 264 263 263 261 258 256 254 255 257 261 260 251 239
257 259 261 264 267 270 272 276 279 282 285 285 283 278 271 266 263 264 265 266 263 262 264 265 269 273 275 276 277 274 266 256 246 234 227 229 236 241 244 244 243 244 246 248 250 252 254 255 257 258 258 259 258 257 255 253 249 246 242 240 238 239 241 244 247 251 254 258 260 263 263 263 263 262 262 262 260 257 253 250 249 250 253 253 244 231
258 260 263 267 269 269 268 269 272 277 280 283 284 281 273 264 260 258 258 259 260 263 268 271 272 273 277 284 285 281 273 260 249 239 231 232 239 244 244 245 245 245 248 252 254 256 258 261 263 264 264 263 262 260 257 253 250 247 245 243 241 241 242 244 247 251 254 257 259 261 261 261 260 259 260 260 258 254 250 246 244 245 247 247 238 226
264 270 274 279 278 273 268 264 266 270 274 278 281 280 277 270 265 264 263 262 261 262 263 254 253 259 263 271 279 285 288 274 257 246 239 239 243 248 246 246 247 249 254 259 262 264 266 268 270 271 270 269 266 262 257 253 250 247 245 244 243 242 243 244 247 250 253 256 258 259 259 258 256 256 256 256 254 251 247 242 240 240 242 241 233 223
283 291 298 301 298 294 288 285 282 280 279 278 276 273 272 267 257 246 249 257 258 255 247 231 232 240 237 236 254 282 295 288 270 254 246 239 238 244 245 249 252 256 262 268 272 274 274 274 275 275 274 271 267 262 257 252 248 245 243 243 242 242 243 245 247 250 253 255 256 256 256 255 253 253 253 252 251 248 244 240 237 236 236 236 230 222
295 304 311 314 315 317 318 319 316 310 302 293 282 274 271 255 222 200 214 245 251 238 225 222 225 230 232 246 273 284 284 281 272 258 247 234 234 244 249 253 257 261 267 276 281 279 275 274 274 272 269 267 264 261 257 252 247 244 242 242 242 242 243 245 248 250 252 254 254 254 253 252 251 250 250 249 248 246 242 239 235 232 231 232 228 221
305 313 317 320 324 329 333 336 337 335 329 320 307 290 271 249 232 227 232 236 228 215 213 217 223 232 244 272 288 285 276 276 274 256 244 235 233 241 251 255 258 262 267 277 288 285 273 271 267 261 257 257 258 258 257 254 251 247 245 244 244 244 245 247 248 250 251 252 252 251 250 249 248 247 247 247 245 243 239 236 232 230 229 228 225 220
305 314 321 323 327 331 335 338 341 343 346 347 354 22 201 229 241 247 248 232 212 201 203 212 223 233 239 246 260 279 275 291 326 312 252 233 233 243 253 255 258 260 261 245 258 297 293 283 265 251 246 249 252 256 257 258 257 255 252 251 250 250 250 250 251 251 251 251 250 248 247 246 245 245 244 244 242 239 235 232 230 229 229 225 222 218
290 297 306 314 320 324 327 331 335 342 350 3 36 96 135 169 205 233 241 236 220 208 204 206 211 219 223 219 225 260 284 309 325 326 305 236 230 241 250 253 254 256 257 235 231 245 262 308 297 258 248 252 256 259 260 262 263 263 262 262 261 259 258 256 255 253 252 250 248 246 244 243 243 243 242 242 240 236 232 228 227 228 228 224 221 217
272 279 291 300 308 311 314 320 328 336 343 348 1 55 158 173 187 201 213 228 230 225 221 218 216 215 215 216 227 246 274 291 294 297 301 262 236 237 248 252 252 253 253 239 233 235 248 272 286 284 274 267 264 265 265 266 268 270 271 271 272 271 268 263 259 255 252 250 247 245 243 242 242 242 242 240 238 234 229 226 225 226 228 227 224 219
264 270 282 293 302 306 308 313 317 322 324 319 314 304 293 280 267 259 251 246 245 245 243 239 239 240 238 229 231 240 255 269 275 280 286 275 249 243 254 255 253 252 250 242 235 236 251 258 267 280 282 275 271 270 270 271 272 273 275 276 277 276 274 269 262 257 253 250 247 246 244 243 243 243 241 239 235 231 227 225 223 225 228 229 227 222
260 267 278 289 298 304 310 315 318 320 319 315 312 310 308 306 302 298 292 284 275 270 267 264 262 263 264 260 256 255 257 264 270 276 280 281 267 259 263 258 255 252 247 243 237 236 252 261 265 271 278 281 279 277 276 275 275 277 278 278 278 277 275 269 262 256 252 250 248 247 247 246 245 243 239 235 231 229 226 223 222 223 226 228 229 227
243 244 248 259 268 275 282 293 305 313 317 318 320 321 320 318 316 313 309 303 298 291 287 282 279 276 275 274 271 268 267 268 271 274 277 279 275 270 266 260 256 251 246 243 240 242 253 267 270 270 271 275 280 282 280 279 280 281 281 281 280 278 274 266 257 250 247 246 247 248 248 247 244 240 235 229 227 225 224 223 221 221 224 227 230 231
225 224 227 235 242 246 249 258 276 293 307 319 326 330 328 326 323 320 317 313 309 305 301 297 293 288 284 281 277 274 271 270 271 271 272 274 274 271 266 261 259 254 247 244 244 247 254 264 272 273 270 267 269 276 281 283 285 285 283 283 283 280 275 263 251 242 239 240 244 246 246 244 240 235 229 224 222 222 222 222 221 221 223 225 229 232
220 222 224 227 231 235 239 242 253 272 295 317 328 330 329 325 323 321 319 316 314 312 310 306 303 298 294 289 285 279 276 273 272 271 271 271 272 271 267 263 260 256 251 248 247 249 253 260 267 272 272 268 267 270 276 280 282 282 282 283 283 281 275 263 249 239 234 234 237 239 239 237 233 230 226 221 219 218 219 220 220 219 220 223 226 229
222 225 226 225 227 230 235 237 245 264 293 317 326 327 324 322 319 317 315 313 313 312 311 309 307 304 300 296 292 288 283 280 278 276 274 273 273 272 269 265 261 257 254 251 249 249 251 254 258 263 270 275 276 276 277 278 279 280 282 282 281 280 277 268 253 241 234 232 231 231 230 229 227 227 225 222 219 218 218 218 218 218 218 219 222 225
222 224 225 224 225 227 231 238 250 269 294 310 317 318 318 316 314 311 308 307 306 307 307 306 305 303 302 300 297 295 292 288 285 282 279 277 275 274 271 267 264 260 256 253 251 250 250 252 254 257 261 267 274 279 282 285 285 285 283 280 279 283 285 279 264 248 239 235 231 228 226 225 224 225 225 224 222 221 220 219 218 217 216 216 218 221
221 223 224 224 225 229 235 245 257 271 285 296 304 309 311 312 310 307 303 301 301 302 302 302 303 302 300 299 299 298 297 294 290 287 283 281 278 276 273 270 266 262 259 257 255 253 252 253 255 257 258 262 266 270 275 281 286 286 283 277 281 289 295 290 276 259 246 239 234 231 227 225 224 224 225 226 226 226 227 225 222 220 218 217 217 218
221 223 224 226 227 231 239 247 256 265 275 287 296 302 306 307 306 303 301 301 302 303 305 306 307 306 303 301 301 302 302 301 297 293 289 285 281 278 275 272 268 264 261 260 259 258 257 257 258 258 260 262 265 268 270 271 272 274 276 275 281 289 292 284 274 262 251 242 237 233 230 227 225 224 225 226 226 229 232 233 231 227 223 220 219 220
221 222 224 226 230 235 241 246 252 260 272 283 291 297 300 302 302 301 301 302 304 306 308 308 308 307 305 305 307 310 312 311 306 301 297 292 288 283 279 275 270 265 263 261 261 262 264 264 263 263 264 264 264 265 267 267 266 265 265 267 269 270 270 270 271 271 265 255 244 237 232 229 228 227 227 226 226 227 230 233 234 234 230 225 222 222
219 219 221 224 229 234 241 245 252 260 271 280 287 292 295 298 299 300 300 301 302 303 304 304 304 303 302 302 305 311 315 313 309 305 302 298 293 289 285 280 274 270 266 263 262 263 267 268 269 270 271 269 266 264 263 264 264 263 260 259 257 255 257 265 272 274 274 270 261 250 239 233 230 229 229 229 228 228 228 230 232 234 234 231 227 225
216 218 222 226 231 237 243 249 258 267 275 281 286 290 293 296 298 298 298 299 299 299 296 294 294 294 293 295 300 306 310 309 306 302 298 295 292 290 288 285 280 275 271 267 266 266 266 267 270 274 275 272 267 264 262 262 262 261 259 256 254 254 255 259 264 268 270 270 269 264 253 241 234 231 230 231 231 231 231 231 232 232 233 231 229 227
216 220 226 233 240 245 252 259 267 274 279 283 287 291 294 296 297 296 295 295 295 293 290 287 284 284 285 289 294 300 303 302 301 299 296 292 290 289 289 287 284 280 275 272 270 269 267 265 266 268 269 267 264 261 259 260 260 260 260 258 256 254 253 254 256 259 262 264 266 266 261 250 238 233 231 233 234 235 235 235 235 235 234 231 229 227
220 224 231 238 244 250 254 260 265 271 276 281 285 290 295 295 292 290 290 290 289 288 286 282 279 279 281 285 289 293 296 297 297 298 297 295 292 290 288 287 285 283 279 275 272 269 267 266 265 263 261 261 261 261 260 259 258 258 259 260 259 257 255 254 253 254 256 258 261 262 260 251 240 235 234 235 237 238 239 240 240 240 239 236 233 229
226 229 234 238 243 247 250 253 256 260 265 272 278 284 290 289 286 284 283 283 284 283 281 279 279 279 280 282 285 288 292 293 294 295 296 295 293 290 288 286 284 283 282 280 276 273 270 268 266 262 259 257 258 260 261 261 259 258 259 261 260 259 258 257 255 254 254 255 257 258 256 251 243 239 238 238 239 241 242 242 243 243 242 241 238 235
232 233 235 237 238 240 241 245 249 254 260 267 273 277 282 282 279 277 277 278 277 275 274 276 278 281 282 283 285 287 289 291 292 293 294 293 291 289 287 285 284 283 283 281 280 279 278 275 271 267 262 259 257 257 260 262 262 261 260 259 259 259 259 259 259 257 255 254 255 255 255 253 252 250 247 241 240 243 245 246 246 246 246 245 244 242
234 234 234 234 234 235 238 242 247 254 260 266 271 274 276 276 274 272 273 274 272 270 270 273 276 279 281 283 284 286 287 289 290 291 293 293 291 289 287 285 284 284 284 285 286 287 286 285 282 277 271 265 260 258 258 260 263 263 260 258 257 257 257 259 260 259 256 254 254 254 254 253 254 253 250 245 243 246 249 250 251 251 250 250 249 248
232 232 232 232 234 236 239 243 248 253 258 263 266 268 270 270 270 271 272 271 269 268 270 273 274 276 278 281 283 284 285 285 286 288 291 292 293 291 288 286 284 283 283 286 293 298 300 299 297 293 286 277 269 263 259 258 260 260 259 258 258 256 256 256 258 259 256 254 253 253 252 251 249 247 246 244 244 247 251 253 254 255 255 255 254 253